Satellite: NOAA-12
Catalog number: 21263
Epoch time:      10020.68320503
Element set:    0421
Inclination:      098.7695 deg
RA of node:       033.8297 deg
Eccentricity:    0.0011581
Arg of perigee:   233.5752 deg
Mean anomaly:     126.4356 deg
Mean motion:   14.25612039 rev/day
Decay rate:       +3.5e-07 rev/day^2
Epoch rev:           97138
Checksum:              282

Satellite: MET-3/5
Catalog number: 21655
Epoch time:      10020.95245325
Element set:    0718
Inclination:      082.5540 deg
RA of node:       052.6622 deg
Eccentricity:    0.0013585
Arg of perigee:   002.9727 deg
Mean anomaly:     357.1467 deg
Mean motion:   13.17023734 rev/day
Decay rate:       +5.1e-07 rev/day^2
Epoch rev:           88629
Checksum:              293

Satellite: MET-2/21
Catalog number: 22782
Epoch time:      10020.91636835
Element set:    0675
Inclination:      082.5475 deg
RA of node:       009.2773 deg
Eccentricity:    0.0023950
Arg of perigee:   095.4606 deg
Mean anomaly:     264.9317 deg
Mean motion:   13.83640418 rev/day
Decay rate:       +2.7e-07 rev/day^2
Epoch rev:           82771
Checksum:              313

Satellite: OKEAN-4
Catalog number: 23317
Epoch time:      10020.73860202
Element set:    0133
Inclination:      082.5420 deg
RA of node:       131.4800 deg
Eccentricity:    0.0022452
Arg of perigee:   012.3423 deg
Mean anomaly:     347.8372 deg
Mean motion:   14.82757988 rev/day
Decay rate:      +1.88e-06 rev/day^2
Epoch rev:           82460
Checksum:              268

Satellite: NOAA-14
Catalog number: 23455
Epoch time:      10020.72459802
Element set:    0916
Inclination:      098.8909 deg
RA of node:       102.4349 deg
Eccentricity:    0.0008755
Arg of perigee:   297.3322 deg
Mean anomaly:     062.6948 deg
Mean motion:   14.13777082 rev/day
Decay rate:       +2.0e-08 rev/day^2
Epoch rev:           77666
Checksum:              322

Satellite: NOAA-15
Catalog number: 25338
Epoch time:      10020.61265513
Element set:    0241
Inclination:      098.6064 deg
RA of node:       010.2857 deg
Eccentricity:    0.0011265
Arg of perigee:   141.2015 deg
Mean anomaly:     218.9954 deg
Mean motion:   14.24802317 rev/day
Decay rate:       -8.2e-07 rev/day^2
Epoch rev:           60773
Checksum:              266

Satellite: RESURS
Catalog number: 25394
Epoch time:      10020.67144128
Element set:    0413
Inclination:      098.3168 deg
RA of node:       046.7013 deg
Eccentricity:    0.0000994
Arg of perigee:   332.0632 deg
Mean anomaly:     028.0490 deg
Mean motion:   14.24192361 rev/day
Decay rate:       -2.7e-07 rev/day^2
Epoch rev:           59935
Checksum:              271

Satellite: FENGYUN1
Catalog number: 25730
Epoch time:      10020.87190052
Element set:    0955
Inclination:      098.7741 deg
RA of node:       349.7513 deg
Eccentricity:    0.0024073
Arg of perigee:   321.3081 deg
Mean anomaly:     038.6329 deg
Mean motion:   14.08171608 rev/day
Decay rate:      +2.19e-06 rev/day^2
Epoch rev:           55095
Checksum:              288

Satellite: OKEAN-0
Catalog number: 25860
Epoch time:      10021.75010187
Element set:     893
Inclination:      097.8138 deg
RA of node:       359.5801 deg
Eccentricity:    0.0001019
Arg of perigee:   110.6165 deg
Mean anomaly:     249.5154 deg
Mean motion:   14.73608510 rev/day
Decay rate:        2.9e-07 rev/day^2
Epoch rev:           56533
Checksum:              281

Satellite: NOAA-16
Catalog number: 26536
Epoch time:      10020.61060399
Element set:    0718
Inclination:      099.1772 deg
RA of node:       034.5511 deg
Eccentricity:    0.0010892
Arg of perigee:   035.3070 deg
Mean anomaly:     324.8811 deg
Mean motion:   14.12542224 rev/day
Decay rate:      -2.82e-06 rev/day^2
Epoch rev:           48099
Checksum:              281

Satellite: NOAA-17
Catalog number: 27453
Epoch time:      10020.80648547
Element set:    0723
Inclination:      098.4542 deg
RA of node:       077.0358 deg
Eccentricity:    0.0011369
Arg of perigee:   204.3824 deg
Mean anomaly:     155.6792 deg
Mean motion:   14.24124448 rev/day
Decay rate:      +1.20e-06 rev/day^2
Epoch rev:           39372
Checksum:              299

Satellite: NOAA-18
Catalog number: 28654
Epoch time:      10020.84109282
Element set:    0206
Inclination:      098.9347 deg
RA of node:       327.6585 deg
Eccentricity:    0.0015083
Arg of perigee:   107.9730 deg
Mean anomaly:     252.3125 deg
Mean motion:   14.11320110 rev/day
Decay rate:      +1.93e-06 rev/day^2
Epoch rev:           24065
Checksum:              275

Satellite: NOAA-19
Catalog number: 33591
Epoch time:      10020.86797687
Element set:    0414
Inclination:      098.7746 deg
RA of node:       326.2395 deg
Eccentricity:    0.0014208
Arg of perigee:   350.3005 deg
Mean anomaly:     009.7895 deg
Mean motion:   14.11018240 rev/day
Decay rate:       -9.3e-07 rev/day^2
Epoch rev:           04913
Checksum:              304

/EX
SB KEPS @ AMSAT  $ORB10021.M
Orbital Elements  10021.MISC

HR AMSAT ORBITAL ELEMENTS FOR MANNED AND MISCELLANEOUS SATELLITES
FROM WA5QGD FORT WORTH,TX January 21, 2010
Send Subscribe/unsubscribe to KEPS at 
http://www.amsat.org/mailman/listinfo/keps
BID: ORB10021.M
TO ALL RADIO AMATEURS BT

